Home > Weather > Ottawa > Past weeks

Flag for Canada Past Weather in Ottawa, Ontario, Canada — Yesterday and Last 2 Weeks

Now
70 °F

Partly sunny.


Feels Like: 70 °F
Forecast: 62 / 77 °F
Wind: 14 mph from Northwest

Location: Ottawa Int'L. Ont.

Current Time: Jun 29, 2016 at 12:21:09 PM

Latest Report: Jun 29, 2016 at 12:00 PM


Visibility: 15 mi

Pressure: 29.91 "Hg

Humidity: 69%

Dew Point: 59 °F

Location of OttawaLocation

Past Weather in Ottawa — Graph

°F

Ottawa Temperature Yesterday

Maximum temperature yesterday: 77 °F (at 1:00 PM)
Minimum temperature yesterday: 66 °F (at 10:00 PM)
Average temperature yesterday: 72 °F

High & Low Weather Summary for the Past Weeks

 TemperatureHumidityPressure
High91 °F (Jun 19, 3:00 PM)100% (Jun 27, 4:00 AM)30.21 "Hg (Jun 27, 4:00 AM)
Low50 °F (Jun 17, 5:00 AM)21% (Jun 17, 7:00 PM)29.64 "Hg (Jun 20, 7:00 PM)
Average71 °F55%29.94 "Hg
* Reported Jun 14 11:00 AM — Jun 29 11:00 AM, Ottawa, Weather by CustomWeather, © 2016

Note: Actual official high and low records may vary slightly from our data, if they occured in-between our weather recording intervals... More about our weather records

Advertising

Ottawa Weather History for the Previous 24 Hours

Scroll right to see more
 ConditionsComfort  
Time TempWeatherWind HumidityBarometerVisibility
11:00 AM
Wed, Jun 29
70 °FPartly sunny.9 mph64%29.91 "Hg15 mi
10:00 AM66 °FPartly sunny.7 mph73%29.90 "Hg15 mi
9:00 AM64 °FPartly sunny.7 mph78%29.89 "Hg15 mi
8:00 AM63 °FBroken clouds.9 mph83%29.89 "Hg15 mi
7:00 AM63 °FPartly sunny.7 mph83%29.88 "Hg15 mi
6:00 AM63 °FPartly cloudy.9 mph83%29.88 "Hg15 mi
5:00 AM63 °FPassing clouds.8 mph83%29.88 "Hg15 mi
4:00 AM63 °FPassing clouds.8 mph83%29.87 "Hg15 mi
3:00 AM63 °FMostly cloudy.10 mph83%29.87 "Hg15 mi
2:00 AM64 °FPartly cloudy.13 mph78%29.88 "Hg15 mi
1:00 AM64 °FPartly cloudy.12 mph83%29.88 "Hg15 mi
12:00 AM64 °FPassing clouds.9 mph88%29.87 "Hg15 mi
11:00 PM
Tue, Jun 28
66 °FLight rain. Passing clouds.8 mph83%29.89 "Hg15 mi
10:00 PM66 °FLight rain. Overcast.7 mph88%29.90 "Hg15 mi
9:00 PM70 °FSprinkles. Partly sunny.12 mph69%29.88 "Hg15 mi
8:00 PM70 °FBroken clouds.10 mph69%29.88 "Hg15 mi
7:00 PM72 °FBroken clouds.9 mph65%29.86 "Hg15 mi
6:00 PM75 °FBroken clouds.13 mph54%29.85 "Hg15 mi
5:00 PM75 °FPartly sunny.12 mph54%29.87 "Hg15 mi
4:00 PM75 °FPartly sunny.12 mph54%29.87 "Hg15 mi
3:00 PM77 °FPartly sunny.10 mph54%29.88 "Hg15 mi
2:00 PM77 °FBroken clouds.12 mph57%29.88 "Hg15 mi
1:00 PM77 °FBroken clouds.8 mph57%29.88 "Hg15 mi
12:00 PM75 °FBroken clouds.8 mph61%29.89 "Hg15 mi
Weather by CustomWeather, © 2016

See weather overviewHow to use our weather pages